Wind_Speed
17 17 18 19 19 19 19 19 19 19 19 19 18 18 18 19 19 19 20 21 22 22 21 21 22 22 23 24 24 25 26 28 29 29 30 30 29 29 27 27 26 25 25 27
17 18 18 18 18 18 17 17 18 18 18 18 16 16 17 17 17 17 18 19 19 19 19 20 20 21 21 21 21 22 23 24 25 25 26 25 24 23 21 19 18 16 16 17
17 18 17 17 17 17 17 17 17 17 17 16 16 16 16 16 15 15 15 15 16 17 18 19 19 19 20 20 20 20 20 21 22 22 21 21 20 19 17 16 13 11 11 10
17 17 18 16 17 16 16 16 16 16 16 16 16 15 15 15 14 14 14 14 15 16 16 17 18 18 18 18 17 17 17 18 18 18 18 18 17 16 15 13 11 9 8 6
17 17 17 16 16 16 16 16 16 16 16 16 15 15 15 14 14 13 13 13 14 15 15 16 16 16 16 16 16 15 15 15 15 15 16 15 15 15 13 12 11 9 7 7
19 18 18 17 17 16 16 17 16 16 16 16 16 15 15 14 14 13 12 13 13 14 14 15 15 15 15 14 14 14 13 13 13 14 14 14 15 14 13 12 11 11 9 9
20 20 19 18 18 17 17 16 16 16 16 16 16 15 15 14 13 13 13 13 13 13 13 14 13 13 13 13 12 12 12 12 12 13 14 14 15 15 14 13 12 12 11 11
22 21 20 19 19 18 18 17 16 16 16 16 16 16 15 14 13 13 12 13 13 13 13 13 13 13 13 12 12 11 11 12 13 13 14 15 15 15 15 14 14 13 13 14
23 22 21 21 20 20 19 19 18 17 17 16 16 16 15 15 14 13 13 13 13 13 13 13 13 13 12 12 11 11 11 12 13 14 15 15 16 16 16 15 15 15 16 17
24 23 23 22 22 22 21 21 20 19 18 18 17 17 16 16 15 14 14 14 13 13 13 13 13 13 13 12 12 12 13 13 14 15 16 16 16 17 17 17 17 18 18 19
24 25 24 23 23 22 22 22 22 21 21 20 19 18 17 17 16 15 15 14 14 14 14 14 14 14 14 14 14 14 15 15 16 17 17 18 18 18 18 19 20 20 21 22
24 25 25 24 24 24 23 23 23 23 23 22 21 20 19 18 17 17 16 16 16 16 16 16 16 16 16 16 16 16 17 17 18 18 19 19 19 19 20 21 22 22 24 25
24 25 25 25 25 25 25 25 25 24 24 24 23 22 21 21 19 19 19 18 18 18 17 17 17 17 18 18 18 18 18 19 19 19 20 20 21 21 22 23 24 25 26 28
24 25 25 25 25 25 25 26 26 25 25 24 24 24 23 22 22 21 21 20 20 20 19 19 19 19 19 19 19 20 20 20 20 21 21 22 22 23 24 25 26 27 29 30
23 24 25 25 25 25 26 26 26 26 26 26 25 25 24 24 24 23 23 22 22 21 21 21 20 20 20 20 20 21 21 22 22 23 23 23 24 25 26 27 28 30 31 33
22 23 24 24 25 26 26 26 27 27 27 27 27 26 26 26 26 25 25 24 24 23 23 22 22 21 21 21 22 22 23 23 24 24 24 24 25 26 27 28 30 31 33 34
21 22 23 24 24 25 26 26 27 27 27 27 27 27 27 27 27 27 26 25 25 24 24 24 23 23 23 23 23 24 24 24 25 25 25 26 26 27 29 30 32 33 35 36
21 21 22 23 23 24 24 25 25 26 26 26 27 27 28 28 28 28 27 26 26 25 25 25 25 25 25 25 24 25 25 25 26 26 26 27 27 28 30 31 33 35 36 37
20 21 21 21 22 23 23 24 24 24 25 25 26 26 27 27 28 28 27 27 26 26 26 26 26 26 26 26 26 25 25 26 26 27 27 27 28 29 31 32 34 36 37 39
18 19 19 20 20 21 22 22 23 23 24 24 24 25 25 26 26 27 26 26 26 26 26 26 26 26 26 26 26 26 26 26 27 27 27 28 29 30 32 33 35 37 38 40
17 17 18 18 19 20 20 21 21 22 22 23 23 24 24 25 25 25 25 26 26 26 26 26 26 26 26 26 26 26 27 27 27 27 28 29 30 31 33 35 36 38 39 41
16 16 17 17 17 18 18 19 19 20 21 21 22 22 23 23 23 23 24 25 25 26 26 26 27 27 27 27 27 27 27 27 28 28 29 30 31 33 34 36 37 39 40 42
14 15 15 16 16 16 17 18 18 19 19 20 21 21 22 22 22 23 23 24 25 25 25 26 27 27 28 28 28 27 28 28 29 29 30 31 33 34 35 37 38 40 41 43
15 15 16 16 16 16 17 17 18 18 19 20 20 21 21 22 22 22 23 24 24 25 26 27 28 28 28 28 29 29 30 30 31 32 32 33 34 35 36 38 39 41 42 43
17 16 16 16 16 17 17 18 18 19 20 20 20 21 22 22 22 23 23 23 24 24 25 26 27 28 29 29 30 31 31 32 32 33 33 34 35 36 37 38 39 40 42 44
19 19 19 19 18 18 18 19 19 20 21 21 21 22 22 23 23 23 24 24 24 25 26 27 28 29 29 30 31 31 32 32 33 34 34 35 35 36 37 38 39 40 42 44
23 23 23 23 23 22 22 22 21 21 22 22 22 22 22 22 23 24 24 25 25 25 26 27 28 28 29 30 31 31 32 33 34 34 35 35 36 36 37 38 39 40 42 43
Wind_Direction
214 214 213 213 213 213 213 212 214 220 226 229 231 235 240 244 249 255 260 264 268 271 273 275 278 281 286 291 296 300 305 311 313 315 316 314 310 308 303 298 292 283 274 269
209 208 207 207 208 209 211 214 219 224 230 233 236 239 242 246 252 259 264 267 270 272 274 276 279 282 286 291 297 303 308 313 316 317 320 321 318 315 312 308 302 291 283 274
208 208 208 209 210 212 215 218 223 228 232 236 240 242 244 249 255 261 265 270 273 274 276 277 280 284 287 290 295 304 311 318 322 321 324 326 326 324 323 321 311 301 292 280
210 210 212 211 215 218 221 225 227 230 234 239 240 240 243 246 252 261 266 272 276 277 278 280 282 285 288 290 295 303 310 319 327 328 331 333 334 334 333 334 328 317 311 299
215 215 214 216 221 225 228 229 230 233 235 236 237 238 240 244 252 260 266 272 278 281 282 284 285 286 288 291 295 303 309 317 327 334 338 342 345 344 344 343 342 335 321 312
220 221 222 224 229 232 232 232 233 234 233 233 235 237 239 244 251 258 266 275 281 285 284 287 288 288 290 293 299 306 312 317 324 333 341 345 347 347 346 345 342 339 337 325
224 226 228 230 234 235 235 234 234 234 233 233 235 237 240 246 251 257 268 277 283 285 285 287 288 291 295 296 301 307 314 320 325 333 338 341 344 343 343 342 341 338 332 324
228 231 232 234 236 237 237 236 234 233 232 234 235 238 242 246 252 258 268 278 283 286 287 289 289 291 295 297 300 306 313 321 327 332 334 335 336 336 336 335 333 330 326 321
233 235 237 238 238 237 237 236 234 233 235 236 237 239 242 246 252 259 268 277 284 287 289 290 290 291 293 296 298 304 311 318 325 329 331 332 332 331 331 330 328 325 322 319
237 238 239 239 239 238 238 236 235 236 238 239 240 242 246 251 255 261 269 277 282 287 290 291 290 288 289 291 294 299 306 312 318 323 325 326 327 327 326 325 323 320 318 316
240 241 241 240 239 238 238 237 237 238 239 240 242 245 249 254 258 263 269 275 281 285 288 290 290 287 285 287 290 295 300 306 312 318 321 322 323 323 322 321 319 318 316 315
240 242 243 242 240 239 239 238 238 239 240 242 245 248 252 256 260 265 270 274 278 282 285 287 288 286 283 284 286 290 296 301 307 313 316 318 319 319 320 319 318 317 316 316
240 241 243 243 242 241 241 242 242 243 243 245 247 250 253 257 261 265 269 274 277 279 282 285 286 285 284 283 284 288 293 298 303 308 312 314 316 316 317 317 317 316 315 315
241 241 242 243 244 243 243 244 244 244 245 247 249 251 253 257 260 265 269 273 276 277 278 282 284 285 285 283 283 286 290 295 299 304 308 311 313 314 314 315 315 315 315 314
241 241 242 244 246 246 246 246 246 246 247 248 250 251 253 257 260 264 268 271 274 275 276 279 282 284 285 284 283 285 288 292 297 301 304 308 310 312 313 314 315 315 315 315
243 242 242 244 246 246 246 247 247 247 248 250 251 253 255 257 260 263 267 270 272 273 274 276 279 282 285 285 284 285 287 290 294 298 301 305 308 310 312 313 315 316 316 316
244 244 244 245 246 247 247 247 247 248 249 250 252 254 256 257 259 262 266 268 269 271 271 273 276 281 284 285 286 286 287 290 293 296 299 302 305 308 311 313 315 316 317 317
246 247 247 246 247 248 248 248 248 248 249 251 252 254 255 257 259 262 264 266 267 268 270 271 274 278 282 284 286 287 288 289 292 295 298 301 305 308 311 313 315 316 317 318
248 249 249 249 248 248 248 248 249 249 250 251 252 254 256 257 259 261 262 264 265 267 268 270 273 276 279 282 285 286 288 290 292 295 298 301 304 308 311 313 315 317 318 319
249 250 249 249 248 249 248 248 249 250 250 251 253 255 257 258 259 261 261 263 264 266 267 268 271 273 276 280 283 285 288 290 293 295 298 301 304 308 311 313 315 317 318 319
251 250 250 250 250 250 250 249 250 250 250 251 253 256 257 259 260 261 261 261 262 264 265 266 268 271 275 278 280 284 287 290 293 296 299 302 305 308 310 313 315 317 318 319
252 252 252 252 252 252 251 250 251 252 252 252 254 256 258 260 261 261 261 261 262 263 264 265 267 270 273 276 279 283 286 290 293 296 299 302 305 308 310 313 315 317 318 319
253 252 252 253 253 254 253 253 253 253 254 255 256 258 260 261 263 263 262 263 264 264 265 266 268 271 273 275 278 282 286 289 292 295 298 301 305 307 309 312 314 316 318 319
255 255 256 256 256 256 256 256 256 256 257 258 259 261 263 264 266 267 267 266 266 266 266 267 269 271 273 276 278 281 285 288 291 294 297 300 303 306 308 310 313 315 317 319
257 258 259 259 260 261 260 260 261 261 261 262 263 264 266 267 268 269 270 269 269 269 269 270 270 272 273 275 278 281 284 287 290 293 295 299 302 304 307 310 313 314 316 319
259 259 261 263 264 265 266 265 264 264 264 265 265 266 267 268 269 271 271 271 271 271 271 272 273 274 275 277 279 282 284 287 290 293 295 298 301 304 307 309 312 314 317 319
262 263 264 265 266 267 267 268 268 269 269 269 269 269 270 271 271 271 272 273 273 273 274 276 277 277 278 279 281 283 285 288 290 293 296 299 302 304 306 309 312 314 317 320
Height
5645 5647 5649 5652 5655 5657 5660 5663 5666 5668 5670 5672 5674 5675 5677 5678 5679 5679 5679 5679 5679 5678 5677 5676 5674 5673 5671 5668 5665 5660 5655 5649 5642 5635 5628 5620 5613 5606 5600 5594 5590 5586 5585 5585
5642 5644 5646 5649 5652 5654 5657 5660 5662 5663 5666 5667 5669 5670 5671 5672 5673 5673 5673 5673 5672 5671 5670 5669 5668 5666 5664 5661 5658 5653 5648 5642 5636 5630 5623 5615 5609 5603 5597 5591 5587 5583 5581 5581
5640 5642 5644 5647 5650 5652 5654 5656 5658 5659 5662 5663 5664 5665 5666 5667 5668 5668 5668 5667 5667 5666 5664 5663 5661 5660 5657 5654 5651 5647 5642 5637 5631 5625 5619 5612 5606 5600 5595 5590 5585 5582 5580 5580
5637 5640 5642 5647 5646 5648 5650 5652 5654 5655 5657 5658 5660 5661 5662 5663 5663 5663 5663 5662 5661 5660 5659 5657 5655 5653 5651 5648 5645 5641 5637 5632 5627 5622 5616 5610 5604 5599 5594 5590 5585 5582 5581 5580
5634 5636 5639 5642 5643 5644 5646 5648 5650 5651 5653 5654 5655 5656 5658 5658 5659 5659 5658 5658 5657 5655 5654 5652 5650 5648 5646 5643 5640 5637 5633 5628 5624 5619 5614 5609 5604 5599 5594 5590 5587 5584 5582 5581
5631 5633 5636 5639 5639 5640 5643 5644 5646 5647 5648 5650 5651 5653 5654 5654 5654 5654 5654 5653 5652 5650 5649 5647 5645 5643 5641 5638 5635 5632 5629 5625 5621 5617 5612 5608 5603 5599 5595 5591 5588 5585 5583 5582
5627 5629 5632 5634 5635 5637 5640 5642 5642 5643 5644 5645 5647 5648 5649 5649 5650 5650 5649 5648 5647 5646 5644 5642 5640 5638 5636 5634 5631 5628 5625 5622 5618 5615 5611 5607 5603 5599 5595 5591 5588 5586 5584 5582
5622 5625 5629 5629 5630 5633 5635 5636 5637 5638 5640 5641 5642 5643 5644 5645 5645 5645 5645 5644 5643 5641 5640 5638 5636 5634 5632 5630 5627 5625 5622 5619 5616 5613 5609 5605 5602 5598 5594 5591 5588 5586 5583 5581
5618 5622 5623 5624 5625 5627 5629 5631 5632 5634 5635 5637 5638 5639 5639 5640 5640 5640 5640 5639 5638 5637 5635 5634 5632 5630 5628 5626 5624 5622 5619 5616 5613 5610 5607 5603 5600 5596 5593 5590 5587 5584 5581 5579
5612 5614 5616 5618 5620 5622 5624 5625 5627 5629 5631 5632 5633 5634 5635 5636 5636 5636 5635 5635 5633 5632 5631 5629 5628 5626 5624 5622 5620 5618 5616 5613 5611 5607 5604 5601 5597 5594 5590 5587 5584 5581 5578 5575
5606 5608 5610 5612 5614 5616 5618 5620 5622 5624 5625 5627 5628 5629 5630 5630 5631 5631 5630 5630 5629 5628 5626 5625 5623 5622 5620 5618 5617 5615 5612 5610 5607 5604 5601 5597 5594 5590 5587 5584 5580 5577 5574 5571
5600 5601 5604 5606 5608 5610 5612 5614 5616 5618 5619 5621 5622 5623 5624 5625 5625 5625 5625 5624 5623 5622 5621 5620 5619 5617 5616 5614 5612 5610 5608 5606 5603 5600 5597 5593 5590 5586 5583 5580 5576 5572 5569 5565
5593 5595 5597 5599 5601 5603 5605 5607 5609 5611 5613 5615 5616 5617 5618 5619 5619 5619 5619 5619 5618 5617 5616 5615 5614 5612 5611 5609 5607 5606 5603 5601 5598 5595 5592 5589 5585 5582 5578 5575 5571 5567 5563 5559
5586 5588 5590 5592 5594 5596 5598 5600 5602 5604 5606 5608 5609 5610 5611 5612 5613 5613 5613 5612 5612 5611 5610 5609 5608 5607 5605 5604 5602 5600 5598 5596 5593 5590 5587 5583 5580 5576 5573 5569 5565 5561 5557 5553
5579 5581 5583 5585 5587 5589 5591 5593 5595 5597 5599 5601 5602 5603 5604 5605 5606 5606 5606 5606 5605 5605 5604 5603 5602 5601 5599 5598 5596 5594 5592 5590 5587 5584 5581 5577 5574 5570 5567 5563 5559 5555 5550 5545
5572 5574 5576 5578 5580 5582 5584 5586 5588 5589 5591 5593 5594 5595 5596 5597 5598 5598 5599 5598 5598 5598 5597 5597 5596 5595 5593 5591 5589 5587 5585 5583 5580 5577 5574 5571 5568 5564 5560 5556 5552 5548 5543 5538
5566 5567 5569 5571 5572 5574 5576 5578 5579 5581 5583 5585 5586 5587 5588 5589 5590 5590 5591 5591 5591 5590 5590 5590 5589 5588 5586 5585 5583 5581 5578 5576 5573 5571 5568 5565 5561 5557 5554 5549 5545 5540 5535 5529
5559 5561 5562 5564 5565 5567 5568 5570 5571 5573 5575 5576 5577 5579 5580 5580 5581 5582 5582 5583 5583 5583 5582 5582 5581 5580 5579 5577 5576 5574 5571 5569 5566 5564 5561 5557 5554 5550 5546 5542 5537 5532 5527 5521
5552 5554 5555 5556 5558 5559 5561 5562 5564 5565 5567 5568 5569 5570 5571 5572 5573 5573 5574 5574 5574 5574 5574 5574 5574 5573 5572 5570 5568 5566 5564 5562 5559 5556 5554 5550 5547 5543 5539 5534 5529 5524 5519 5513
5546 5548 5549 5550 5551 5552 5553 5555 5556 5557 5559 5560 5561 5562 5563 5564 5564 5565 5565 5566 5566 5566 5566 5566 5566 5565 5564 5562 5561 5559 5557 5554 5552 5549 5546 5543 5539 5535 5531 5526 5521 5516 5510 5504
5541 5542 5543 5544 5544 5545 5546 5547 5549 5550 5551 5552 5553 5554 5555 5556 5556 5556 5557 5557 5558 5558 5558 5558 5558 5557 5556 5555 5553 5551 5549 5547 5544 5542 5539 5535 5532 5528 5523 5518 5513 5508 5502 5495
5536 5537 5537 5538 5538 5539 5540 5541 5542 5543 5544 5545 5546 5547 5547 5548 5548 5548 5549 5549 5549 5550 5550 5550 5549 5549 5548 5546 5545 5543 5541 5539 5537 5534 5531 5527 5524 5520 5515 5510 5505 5499 5493 5487
5531 5532 5532 5533 5533 5533 5534 5535 5535 5536 5537 5538 5539 5539 5540 5540 5540 5541 5541 5541 5541 5541 5541 5541 5541 5540 5539 5538 5537 5535 5533 5531 5529 5526 5523 5519 5516 5511 5507 5502 5497 5491 5485 5478
5527 5527 5527 5527 5528 5528 5528 5529 5529 5530 5531 5531 5532 5532 5533 5533 5533 5533 5533 5533 5533 5533 5533 5533 5532 5532 5531 5530 5528 5527 5525 5523 5520 5517 5514 5511 5507 5503 5498 5493 5488 5482 5476 5469
5521 5521 5522 5522 5522 5522 5522 5522 5523 5523 5524 5524 5525 5525 5525 5525 5525 5525 5525 5525 5525 5525 5525 5524 5524 5523 5522 5521 5520 5518 5516 5514 5511 5509 5506 5502 5498 5494 5490 5485 5479 5473 5467 5460
5515 5515 5516 5516 5516 5516 5516 5516 5516 5517 5517 5517 5517 5518 5518 5517 5517 5517 5517 5517 5517 5517 5516 5516 5515 5514 5513 5512 5511 5509 5507 5505 5502 5500 5497 5493 5489 5485 5481 5476 5470 5465 5458 5452
5508 5508 5508 5509 5509 5509 5509 5509 5509 5509 5509 5510 5510 5510 5510 5510 5509 5509 5509 5509 5509 5508 5508 5507 5506 5505 5504 5503 5501 5500 5498 5496 5493 5490 5487 5484 5480 5476 5472 5467 5462 5456 5450 5443